Red Bluff, CA

3:44 AM PST on November 13, 2019 (GMT -0800)
Red Bluff Municipal

Weather History for KRBL - September, 2019

Change the Weather History Date:

Saturday, September 21, 2019

  Actual Average Record
Temperature  
Mean Temperature 74 °F -  
Max Temperature 89 °F 89 °F 108 °F (1987)
Min Temperature 59 °F 58 °F 48 °F (1986)
Cooling Degree Days 9    
Growing Degree Days 24 (Base 50)    
Moisture  
Dew Point 43 °F    
Average Humidity 35    
Maximum Humidity 58    
Minimum Humidity 9    
Precipitation  
Precipitation 0.00 in - - ()
Sea Level Pressure  
Sea Level Pressure 29.94 in    
Wind  
Wind Speed 7 mph (NNW)    
Max Wind Speed 13 mph    
Max Gust Speed 20 mph    
Visibility 10 miles    
Events      
Averages and records for this station are not official NWS values.
T = Trace of Precipitation, MM = Missing Value Source: NWS Daily Summary

Daily Weather History Graph

Daily Weather History Graph

Search for Another Location

Airport or City:

Astronomy

Sep. 21, 2019 Rise Set
Actual Time 6:55 AM PDT 7:07 PM PDT
Civil Twilight 6:28 AM PDT 7:35 PM PDT
Nautical Twilight 5:56 AM PDT 8:06 PM PDT
Astronomical Twilight 5:24 AM PDT 8:39 PM PDT
Moon 11:50 PM PDT (9/21) 2:07 PM PDT (9/21)
Length of Visible Light 13h 06m
Length of Day
12h 12m
Waning Gibbous, 53% of the Moon is Illuminated
Sep 21
Waning Gibbous
Sep 21
Last Quarter
Sep 28
New
Oct 5
First Quarter
Oct 13
Full

Hourly Weather History & Observations

Time (PDT) Temp. Dew Point Humidity Pressure Visibility Wind Dir Wind Speed Gust Speed Precip Events Conditions
12:54 AM 66.0 °F 45.0 °F 47% 29.97 in 10.0 mi NNW 8.1 mph - N/A   Clear
1:54 AM 64.9 °F 46.0 °F 50% 29.98 in 10.0 mi NNW 9.2 mph - N/A   Clear
2:54 AM 66.9 °F 46.0 °F 47% 29.97 in 10.0 mi NNW 10.4 mph - N/A   Clear
3:54 AM 64.9 °F 46.0 °F 50% 29.98 in 10.0 mi WNW 11.5 mph - N/A   Clear
4:54 AM 63.0 °F 46.0 °F 54% 29.98 in 10.0 mi NW 6.9 mph - N/A   Clear
5:54 AM 61.0 °F 46.0 °F 58% 29.99 in 10.0 mi NNW 5.8 mph - N/A   Clear
6:54 AM 61.0 °F 46.0 °F 58% 30.00 in 10.0 mi Calm Calm - N/A   Clear
7:54 AM 64.0 °F 48.0 °F 56% 30.01 in 10.0 mi Calm Calm - N/A   Clear
8:54 AM 72.0 °F 46.9 °F 41% 30.02 in 10.0 mi NNW 9.2 mph - N/A   Clear
9:54 AM 75.9 °F 46.0 °F 35% 30.01 in 10.0 mi North 11.5 mph - N/A   Clear
10:54 AM 80.1 °F 45.0 °F 29% 30.00 in 10.0 mi NNW 10.4 mph - N/A   Clear
11:54 AM 82.0 °F 43.0 °F 25% 29.98 in 10.0 mi North 11.5 mph - N/A   Clear
12:54 PM 84.0 °F 42.1 °F 23% 29.95 in 10.0 mi NNW 12.7 mph 19.6 mph N/A   Clear
1:54 PM 87.1 °F 37.9 °F 18% 29.92 in 10.0 mi NNW 10.4 mph - N/A   Clear
2:54 PM 88.0 °F 37.9 °F 17% 29.90 in 10.0 mi NW 10.4 mph - N/A   Clear
3:54 PM 88.0 °F 37.9 °F 17% 29.88 in 10.0 mi NNW 10.4 mph - N/A   Clear
4:54 PM 89.1 °F 37.9 °F 16% 29.86 in 10.0 mi Calm Calm - N/A   Clear
5:54 PM 88.0 °F 37.0 °F 16% 29.86 in 10.0 mi NNW 5.8 mph - N/A   Clear
6:54 PM 84.0 °F 37.9 °F 19% 29.86 in 10.0 mi Calm Calm - N/A   Clear
7:54 PM 77.0 °F 39.9 °F 26% 29.86 in 10.0 mi SSW 4.6 mph - N/A   Clear
8:54 PM 71.1 °F 43.0 °F 36% 29.88 in 10.0 mi WSW 5.8 mph - N/A   Clear
9:54 PM 69.1 °F 45.0 °F 42% 29.88 in 10.0 mi North 3.5 mph - N/A   Clear
10:54 PM 64.9 °F 44.1 °F 47% 29.89 in 10.0 mi North 3.5 mph - N/A   Clear
11:54 PM 63.0 °F 45.0 °F 52% 29.89 in 10.0 mi Calm Calm - N/A   Clear